OPS 4682 DEB, 38440

Orbit data source: Space-Track

OPS 4682 DEB, 38440 is space debris in LEO originally from a launch on Sat, 03 Apr 1965 UTC launched from the Air Force Western Test Range (AFWTR). Debris objects in space refer to the collection of defunct objects orbiting the Earth. Examples of debris include non-operational satellites, rocket bodies, and fragments generated from explosions, collisions, or faulty payload assembly.

Loading next visibility...
Identifier
38440, 1965-027EV
Orbit
LEO
Country
Flag of USUS
Related business
Manufacturer
Unknown
Mission
Spacecraft
Bus & Motor
Unknown
Mass
Unknown
Launch date (UTC)
1965-04-03 (61 years ago)
Launch vehicle
Unknown
Launch site
Air Force Western Test Range (AFWTR)
Object type
Payload
Rocket body
Debris
Shape & HBR
Unknown shape, 0.1 m
Radar Cross Section
Medium (>0.1 m² and <1 m²)

Expand to show TLE details & history
Last TLE update: 1 day ago

TLE from 1 day ago
0 OPS 4682 DEB
1 38440U 65027EV  26174.31168477  .00000587  00000-0  19500-2 0  9993
2 38440  90.2562  17.4158 0038792  12.3985 347.8082 12.98932189617758
Epoch: 2026-06-23T07:28Z
TLE epoch observation values (Epoch: 2026-06-23T07:28:49.564Z)
Latitude
0.00001°
Longitude
-6.27578°
Altitude
1,240.17 km
Speed
7.248 km/s
True Right ascension
01h 09m 39s
True Declination
0° 00' 00"
Sunlit
Object was in daylight at epoch
Visualization orbit readout
Latitude
Unknown
Longitude
Unknown
Altitude
Unknown
Speed
Unknown
Apparent Right ascension
Unknown
Apparent Declination
Unknown
Sunlit
N/A
Visualization observer readout
Local Sidereal Time
01:44:48
Azimuth
Unknown
Elevation
Unknown
Doppler factor
Unknown
Orbital elements
Apogee altitude
1,293.045 km
Perigee altitude
1,233.759 km
Semi-major axis
7,641.539 km
Eccentricity
0.00388
Inclination
90.2562°
RAAN
17.4158°
Arg. of periapsis
12.3985°
True anomaly
347.71388°
Mean anomaly
347.8082°
Eccentric anomaly
347.76108°
Mean motion
3.24917 °/min
Orbital period
110.8 mins
BSTAR
0.00195
Loading maneuver chart data...
Computing Atmospheric mass density...
Loading historical data...
Loading historical data...
Loading historical data...
Loading historical data...
Loading historical data...
Loading historical data...
Loading historical data...

Documentation

Showing up to 5 results
|